RH
98 96 86 82 82 80 77 77 78 79 80 78 79 79 79 77 77 79 80 80 80 79 76 76 76 77 77 76 76 77 76 75 75 75 75 74 68 70 72 73 68 71 61
93 94 87 85 81 77 78 80 82 83 83 81 78 77 78 78 77 77 76 76 74 73 75 76 78 78 79 80 83 82 79 79 80 82 87 86 79 73 67 73 76 77 63
96 89 85 85 76 78 81 84 84 81 75 74 74 75 74 73 73 72 72 71 71 70 70 70 71 73 74 76 78 79 82 86 86 87 90 95 93 77 75 70 78 74 73
93 91 88 86 82 81 80 82 82 80 77 75 75 73 70 68 67 66 68 68 66 66 66 66 65 65 66 66 68 71 73 78 79 88 97 96 89 81 75 68 72 68 69
96 94 88 86 82 84 83 79 79 78 77 74 68 65 64 66 66 68 68 69 66 64 63 63 64 65 64 63 62 60 62 65 68 71 92 96 97 83 79 68 70 67 66
96 96 90 88 86 82 81 80 77 73 69 64 62 64 65 62 63 63 63 63 63 63 63 62 62 62 62 61 60 60 61 64 70 75 68 70 75 71 74 74 75 70 69
97 97 92 87 82 81 79 75 70 65 62 61 63 63 61 58 60 61 62 63 61 61 62 58 59 58 60 61 60 63 65 70 80 80 74 66 63 61 65 73 71 71 70
92 91 83 87 82 78 74 68 64 62 62 62 62 60 59 58 57 59 60 61 59 58 59 59 58 57 59 61 61 64 69 70 80 94 94 92 79 73 74 75 75 76 76
88 88 85 87 82 78 73 66 62 62 64 62 60 60 64 62 59 62 59 58 58 57 57 56 56 56 59 61 63 66 80 86 96 97 88 94 80 71 71 74 73 75 74
85 88 85 83 80 81 82 75 74 68 66 63 64 67 68 70 70 64 66 56 55 55 55 54 56 58 61 62 62 71 82 87 96 96 96 83 70 68 70 70 70 69 70
81 79 76 74 77 84 87 81 75 69 68 68 74 69 71 74 70 72 65 61 58 58 56 56 57 60 60 62 63 70 84 98 97 97 96 76 68 68 72 72 72 73 73
78 71 62 70 76 77 62 80 75 65 72 71 70 68 70 76 71 61 66 63 61 60 59 59 60 59 60 64 67 68 97 98 98 98 85 71 65 62 64 67 67 69 72
69 66 66 68 72 75 76 81 81 78 79 75 70 68 67 64 64 64 69 72 71 64 65 64 65 65 65 65 70 80 98 98 99 99 82 70 64 62 65 70 72 72 74
64 65 64 65 68 76 83 81 80 76 79 78 72 66 69 70 68 68 71 74 74 73 68 71 70 66 64 68 76 91 98 98 99 99 93 78 68 70 71 71 72 69 71
62 65 66 70 73 76 79 83 82 82 79 76 72 68 67 68 70 69 73 74 75 69 70 69 70 67 67 71 92 90 97 97 96 98 98 81 72 68 68 67 69 69 69
62 66 73 72 76 77 81 80 80 83 80 75 72 68 64 69 68 68 68 72 73 72 70 68 70 71 70 73 90 97 97 97 96 94 92 92 73 71 68 64 65 66 66
61 71 72 75 77 76 76 80 82 81 76 76 72 66 62 65 67 70 69 71 74 72 65 64 67 70 69 66 91 96 96 93 90 91 82 82 89 73 64 62 65 66 67
71 70 71 67 77 79 78 79 78 80 82 80 75 71 62 62 65 70 70 72 71 70 67 66 69 68 72 72 73 94 94 87 85 82 78 81 85 79 74 63 62 62 59
69 72 75 78 78 79 80 80 80 78 80 82 80 75 64 62 63 68 71 72 68 69 70 66 66 71 74 73 64 80 93 94 89 73 85 80 76 72 69 63 64 59 56
69 75 76 79 80 80 82 85 86 84 83 83 81 75 67 65 64 69 68 68 71 68 69 67 65 68 74 79 59 66 85 94 94 92 87 72 76 72 69 66 68 66 54
76 80 83 82 84 85 87 85 85 82 86 85 82 71 68 66 66 68 71 68 69 68 70 66 66 67 69 83 76 69 76 92 91 92 94 88 76 73 68 67 68 68 66
77 84 78 76 80 82 82 84 82 83 86 83 84 78 72 70 70 68 66 69 69 70 68 68 68 67 71 82 81 81 70 58 77 76 93 88 87 76 69 63 63 62 67
82 80 75 76 72 77 78 84 84 84 86 83 83 83 78 76 75 75 74 78 76 76 76 73 72 65 70 74 80 74 72 66 84 72 85 89 89 90 83 70 62 61 63
88 86 73 71 74 76 78 79 77 78 75 80 82 85 81 76 78 79 79 80 80 83 81 79 71 72 76 70 75 73 80 76 78 75 74 84 80 83 90 83 70 62 63
72 80 78 77 76 75 82 79 78 78 82 85 86 81 84 84 83 82 84 86 88 90 88 84 80 77 78 75 76 77 80 83 85 86 86 78 76 75 84 92 85 72 62
76 72 78 79 77 78 80 81 80 78 84 89 88 89 89 88 83 77 76 86 89 91 91 91 88 84 80 79 79 81 77 74 78 83 92 89 87 79 74 79 90 82 73
Wind_Speed
6 8 15 15 13 14 13 11 9 8 8 7 7 7 8 8 8 9 11 12 12 12 12 12 11 10 9 7 8 8 7 7 7 8 8 8 7 6 5 5 5 4 5
12 8 15 15 16 14 12 11 8 8 10 12 13 14 14 14 13 13 14 14 15 14 15 14 14 13 13 14 13 11 7 5 5 6 7 7 7 7 6 4 3 2 3
12 10 12 16 15 14 12 11 12 12 11 10 10 11 11 10 10 10 11 11 11 10 10 10 11 11 11 12 12 12 13 13 9 8 6 4 4 6 8 5 4 3 2
11 9 10 16 15 14 13 14 12 11 11 10 10 11 11 11 10 10 11 10 10 10 10 10 10 11 11 10 10 9 10 10 10 9 4 4 6 10 11 5 5 4 3
10 9 11 16 15 16 15 13 12 12 11 11 10 10 11 11 11 10 10 10 11 10 10 10 10 10 10 10 10 9 9 10 11 8 5 5 4 7 11 6 5 4 4
9 8 12 15 16 15 14 14 13 12 11 10 10 10 11 11 11 11 11 10 11 10 10 10 10 10 11 12 10 10 10 10 8 6 5 6 5 9 10 10 7 4 5
9 7 10 17 15 15 15 13 12 11 11 11 10 11 11 11 12 11 11 10 10 10 10 10 10 11 11 12 13 12 11 10 6 5 5 5 5 8 9 10 2 2 6
11 8 9 14 14 14 14 13 12 11 12 12 11 10 11 12 11 11 10 10 11 11 11 11 11 11 11 12 13 13 12 10 6 6 5 3 5 5 10 11 9 8 7
8 9 9 8 10 12 12 13 13 12 12 10 10 10 10 10 11 11 12 11 11 11 11 11 11 12 12 12 13 13 12 12 6 4 6 4 8 13 12 13 12 11 11
9 7 8 7 7 6 6 13 13 12 10 8 8 10 10 11 11 12 12 12 12 11 11 12 12 12 13 14 13 12 11 11 6 6 5 5 13 13 12 12 12 13 12
7 6 6 6 6 6 6 7 11 12 11 10 10 11 8 4 6 8 11 12 12 12 12 12 12 13 13 13 12 11 10 4 5 5 4 14 16 15 15 14 15 15 14
8 5 6 6 6 6 5 6 6 6 5 5 5 6 5 5 5 6 9 11 12 11 12 12 12 12 9 4 4 7 3 5 5 5 5 16 15 13 13 13 14 14 14
8 4 6 6 6 7 5 4 3 3 3 4 6 5 5 4 4 4 3 3 4 7 4 6 6 4 6 5 4 4 4 5 3 4 8 15 14 11 12 13 14 14 15
7 6 6 6 6 6 4 4 4 3 3 3 4 5 3 3 4 4 3 4 4 3 5 5 4 5 6 6 5 5 5 4 3 3 6 13 14 14 14 14 15 14 15
9 6 6 6 6 5 6 4 3 3 3 4 4 4 3 4 3 3 3 4 4 3 4 4 4 5 6 6 5 5 5 5 5 3 3 12 15 14 14 14 15 15 15
8 8 6 6 6 6 5 5 4 3 4 4 3 3 5 4 4 3 3 4 4 4 3 4 4 4 4 4 5 5 5 4 5 5 4 5 15 15 14 13 13 14 14
8 8 8 7 7 6 6 5 4 3 4 4 3 3 5 4 4 4 3 3 3 3 5 4 4 4 5 3 5 4 4 4 4 4 4 4 5 13 14 13 13 14 15
9 8 6 6 7 7 6 4 3 3 3 3 3 2 4 4 5 3 3 3 2 3 4 3 4 3 4 4 2 2 3 3 3 4 4 4 4 4 8 12 12 13 13
9 9 7 7 7 7 6 4 4 4 3 2 2 2 3 4 4 3 2 2 2 3 4 3 3 3 3 4 3 2 2 2 2 2 3 4 5 4 4 9 12 12 12
6 7 7 5 7 7 5 4 3 3 1 1 1 2 3 2 3 3 1 1 3 3 4 3 4 3 2 3 2 2 1 1 1 0 1 1 3 4 4 4 4 5 11
6 7 6 7 6 5 3 3 2 1 1 0 1 2 3 3 2 2 1 1 3 3 2 3 1 4 4 4 2 3 2 1 1 1 1 2 2 2 3 3 3 3 4
8 7 8 7 6 4 2 2 2 2 1 1 1 2 3 3 3 2 1 2 2 1 3 3 3 2 1 3 2 1 3 4 3 2 1 1 2 1 2 2 3 3 3
8 9 8 7 8 5 4 3 3 2 2 1 1 1 2 2 2 2 1 2 1 1 0 1 1 2 1 2 3 2 2 1 3 2 1 1 1 1 1 1 1 1 2
8 7 6 7 6 6 7 3 4 3 3 2 2 1 1 0 1 1 3 3 3 1 1 1 2 1 2 1 2 1 1 2 1 5 2 2 2 3 3 3 3 2 1
7 7 5 6 7 6 6 5 4 3 2 1 1 1 1 1 1 1 1 2 2 2 3 3 2 3 2 2 2 1 0 1 1 3 4 4 3 2 3 4 4 3 3
4 6 6 7 5 6 7 6 6 6 5 3 2 2 1 1 1 2 2 1 1 3 4 4 4 5 4 3 2 3 3 2 2 2 3 3 4 4 3 3 4 4 4
Wind_Direction
175 164 153 153 141 126 123 118 116 104 98 88 84 81 86 74 62 57 55 54 49 42 41 36 28 26 24 23 16 9 12 18 21 22 16 9 0 355 2 32 37 6 34
144 157 150 146 133 128 125 120 111 102 99 90 74 58 51 50 46 43 39 33 33 24 27 20 22 22 20 21 14 1 338 349 9 15 9 10 1 348 335 327 355 342 19
141 147 138 136 135 131 127 119 102 92 88 81 81 76 72 66 59 53 48 44 41 36 34 27 19 16 11 9 7 1 11 24 12 0 7 352 336 326 325 270 269 289 314
133 131 132 129 132 132 125 109 100 99 97 92 87 82 76 68 61 54 47 41 41 35 32 29 20 12 7 2 1 4 359 2 2 10 4 346 337 329 335 267 255 286 328
114 122 132 131 138 124 117 117 113 107 100 94 88 81 78 71 67 61 55 50 49 43 39 37 33 27 19 11 3 358 354 354 359 4 353 342 334 323 331 295 271 295 309
117 117 137 132 123 123 121 117 110 106 100 94 90 87 81 72 68 64 62 61 54 51 46 42 40 35 29 22 23 19 16 9 6 346 333 325 340 324 328 321 263 263 308
114 112 122 122 123 122 117 112 106 104 100 98 94 90 86 75 75 68 62 56 48 47 38 34 40 34 29 28 29 28 23 17 15 346 322 319 315 320 321 327 310 285 312
121 111 108 110 119 118 115 112 108 107 106 100 95 87 84 76 67 65 57 51 47 45 41 37 35 33 32 32 34 31 27 37 29 4 351 334 299 311 41 45 40 17 5
102 99 96 95 109 108 109 109 107 106 103 98 92 81 73 67 64 60 55 49 48 44 41 39 36 35 36 36 35 31 44 43 32 6 7 8 44 52 49 51 47 41 36
96 93 101 91 91 90 92 100 98 97 94 99 93 75 71 61 63 58 51 47 45 43 41 40 40 37 38 40 34 39 48 40 26 14 3 19 40 45 40 45 41 32 29
95 95 99 101 96 98 89 84 85 88 82 79 82 80 70 61 58 47 52 49 48 43 41 42 40 39 35 33 31 41 47 33 28 22 5 32 38 41 40 49 50 46 45
129 123 113 113 111 98 90 81 80 77 69 72 75 76 80 68 64 63 48 47 47 39 40 41 40 38 36 29 19 37 43 42 35 24 27 36 32 28 32 35 44 48 48
138 124 124 119 116 110 104 99 79 79 81 72 76 75 69 71 55 47 42 31 31 28 27 30 27 21 28 30 31 41 54 48 35 30 31 40 34 27 32 42 43 46 45
138 134 123 127 119 114 109 109 107 98 93 90 83 86 89 70 59 52 36 44 36 4 28 27 24 15 31 32 41 62 59 52 36 29 26 45 43 40 42 39 39 44 47
137 132 135 134 131 127 116 112 106 103 101 106 89 86 99 91 79 59 37 45 36 4 28 24 24 26 27 21 37 74 74 67 55 34 14 48 49 44 41 38 37 33 36
140 131 137 137 129 131 123 126 126 114 118 94 89 104 96 103 90 76 53 36 33 15 22 32 38 30 31 24 42 70 73 62 65 52 29 23 55 48 41 37 33 27 28
152 140 148 139 134 133 128 128 127 135 114 105 109 100 93 87 86 80 61 37 28 4 33 33 38 40 41 27 52 62 60 52 59 63 50 47 43 44 45 39 38 31 30
134 146 144 142 135 135 130 129 125 126 119 118 121 110 101 93 84 75 64 46 14 16 39 37 26 35 36 29 6 30 64 65 61 55 55 57 57 52 34 49 46 40 33
147 144 147 142 139 134 117 117 115 115 119 139 141 114 107 95 97 91 74 49 41 38 32 17 32 58 36 8 343 27 41 62 40 69 62 69 68 57 43 37 43 41 37
130 127 130 146 135 124 104 93 73 90 105 123 158 128 130 129 119 109 85 48 43 47 32 19 29 22 52 2 344 17 345 20 46 81 112 87 86 76 65 52 37 21 38
145 135 165 148 162 118 109 114 84 184 174 182 195 187 162 160 153 128 83 26 34 45 35 23 13 35 23 345 29 357 350 341 134 220 203 193 153 113 88 64 50 40 16
156 161 163 171 154 141 135 133 133 157 179 161 150 186 195 189 187 186 174 9 28 6 23 42 49 28 24 17 108 148 6 337 350 341 259 234 221 155 113 92 80 74 65
148 176 192 175 150 154 158 119 84 63 55 53 62 242 247 206 217 202 204 216 227 189 8 82 114 92 24 336 29 130 39 292 323 322 355 349 306 254 250 203 163 126 78
204 182 184 142 164 161 172 167 148 168 176 210 179 178 231 212 248 241 234 230 229 208 240 241 160 145 121 293 346 17 82 157 181 329 332 314 309 246 251 247 207 205 147
184 171 163 166 170 166 173 181 169 169 185 141 124 231 267 324 317 313 279 292 278 239 241 223 199 193 180 170 192 191 124 179 173 170 277 308 326 265 239 229 221 211 196
158 153 178 171 177 180 181 181 180 184 182 159 209 227 259 267 321 33 14 12 270 236 232 228 218 207 203 205 198 204 197 192 202 178 241 279 253 285 269 254 222 200 197